RYR59DR EGSS-EPSC

Flight info

Callsign RYR59DR
Flight time 1h 25m
Altitude 37000
Route CLN P44 RATLO M197 REDFA L620 TACHA DCT VIBIS L619 TABOK L733 BODLA
Aircraft B738/M-SDE2E3FGHIRWXY/LB1

Departure

Time 2026-05-07 06:27
Airport London Stansted Airport (EGSS)

Arrival

Time 2026-05-07 07:53
Airport Solidarity Szczecin–Goleniów Airport (EPSC)
Time Latitude Longitude Altitude Speed Heading
2026-05-07 05:59 51.89294 0.26130 358 ft 0 kts 223°
2026-05-07 06:18 51.89304 0.26145 358 ft 4 kts 223°
2026-05-07 06:18 51.89320 0.26169 353 ft 3 kts 223°
2026-05-07 06:18 51.89331 0.26197 356 ft 4 kts 289°
2026-05-07 06:19 51.89318 0.26228 358 ft 4 kts 313°
2026-05-07 06:19 51.89312 0.26238 357 ft 0 kts 313°
2026-05-07 06:21 51.89315 0.26232 358 ft 3 kts 313°
2026-05-07 06:21 51.89354 0.26165 354 ft 13 kts 313°
2026-05-07 06:22 51.89431 0.26031 348 ft 18 kts 313°
2026-05-07 06:22 51.89496 0.25761 350 ft 14 kts 223°
2026-05-07 06:22 51.89390 0.25599 354 ft 27 kts 223°
2026-05-07 06:23 51.89248 0.25386 349 ft 27 kts 223°
2026-05-07 06:23 51.89112 0.25183 348 ft 26 kts 223°
2026-05-07 06:23 51.88986 0.24993 348 ft 24 kts 223°
2026-05-07 06:23 51.88867 0.24815 352 ft 24 kts 223°
2026-05-07 06:24 51.88727 0.24602 348 ft 30 kts 223°
2026-05-07 06:24 51.88578 0.24380 350 ft 28 kts 223°
2026-05-07 06:24 51.88438 0.24169 348 ft 27 kts 223°
2026-05-07 06:24 51.88307 0.23972 353 ft 25 kts 223°
2026-05-07 06:25 51.88185 0.23789 350 ft 23 kts 223°
2026-05-07 06:25 51.88058 0.23599 351 ft 27 kts 223°
2026-05-07 06:25 51.87914 0.23383 348 ft 28 kts 223°
2026-05-07 06:25 51.87775 0.23175 348 ft 25 kts 223°
2026-05-07 06:26 51.87752 0.22999 352 ft 17 kts 306°
2026-05-07 06:26 51.87841 0.22844 348 ft 24 kts 313°
2026-05-07 06:26 51.87935 0.22664 352 ft 11 kts 323°
2026-05-07 06:26 51.87975 0.22694 348 ft 9 kts 43°
2026-05-07 06:27 51.88195 0.23023 348 ft 79 kts 43°
2026-05-07 06:27 51.88762 0.23873 344 ft 141 kts 43°
2026-05-07 06:27 51.89563 0.25051 754 ft 159 kts 43°
2026-05-07 06:27 51.90372 0.26244 1581 ft 160 kts 44°
2026-05-07 06:28 51.91158 0.27653 2025 ft 184 kts 58°
2026-05-07 06:28 51.91677 0.29643 2455 ft 203 kts 80°
2026-05-07 06:28 51.91638 0.31947 3041 ft 209 kts 107°
2026-05-07 06:28 51.91018 0.34125 3645 ft 221 kts 117°
2026-05-07 06:29 51.90312 0.36364 4419 ft 224 kts 117°
2026-05-07 06:29 51.89623 0.38627 5311 ft 224 kts 116°
2026-05-07 06:29 51.89239 0.41155 5736 ft 249 kts 88°
2026-05-07 06:29 51.89556 0.44016 6277 ft 265 kts 79°
2026-05-07 06:30 51.89952 0.46967 7008 ft 271 kts 79°
2026-05-07 06:30 51.90346 0.49969 7767 ft 275 kts 79°
2026-05-07 06:30 51.90739 0.53050 8491 ft 282 kts 78°
2026-05-07 06:30 51.91127 0.56185 9296 ft 286 kts 78°
2026-05-07 06:31 51.91512 0.59367 10102 ft 290 kts 78°
2026-05-07 06:31 51.91899 0.62634 10536 ft 306 kts 78°
2026-05-07 06:31 51.92311 0.66163 10719 ft 330 kts 78°
2026-05-07 06:31 51.92742 0.69908 11132 ft 344 kts 79°
2026-05-07 06:32 51.93180 0.73753 11806 ft 349 kts 79°
2026-05-07 06:32 51.93618 0.77642 12579 ft 353 kts 79°
2026-05-07 06:32 51.94059 0.81575 13356 ft 357 kts 79°
2026-05-07 06:32 51.94504 0.85556 14100 ft 361 kts 79°
2026-05-07 06:33 51.94951 0.89584 14818 ft 365 kts 79°
2026-05-07 06:33 51.95402 0.93654 15567 ft 368 kts 79°
2026-05-07 06:33 51.95855 0.97760 16304 ft 372 kts 79°
2026-05-07 06:33 51.96312 1.01919 17001 ft 377 kts 79°
2026-05-07 06:34 51.96773 1.06132 17694 ft 382 kts 79°
2026-05-07 06:34 51.97238 1.10392 18422 ft 385 kts 79°
2026-05-07 06:34 51.97706 1.14695 19041 ft 389 kts 79°
2026-05-07 06:34 51.98177 1.19033 19665 ft 392 kts 79°
2026-05-07 06:35 51.98649 1.23407 20311 ft 395 kts 79°
2026-05-07 06:35 51.99124 1.27823 20909 ft 399 kts 79°
2026-05-07 06:35 51.99602 1.32276 21534 ft 402 kts 80°
2026-05-07 06:35 52.00082 1.36771 22116 ft 406 kts 80°
2026-05-07 06:36 52.00564 1.41303 22689 ft 410 kts 80°
2026-05-07 06:36 52.01049 1.45875 23273 ft 413 kts 80°
2026-05-07 06:36 52.01536 1.50490 23771 ft 417 kts 79°
2026-05-07 06:36 52.02027 1.55155 24232 ft 420 kts 79°
2026-05-07 06:37 52.02512 1.59787 24695 ft 423 kts 79°
2026-05-07 06:37 52.03005 1.64506 25211 ft 424 kts 79°
2026-05-07 06:37 52.03496 1.69233 25699 ft 426 kts 79°
2026-05-07 06:37 52.03988 1.73980 26257 ft 426 kts 79°
2026-05-07 06:38 52.04478 1.78722 26775 ft 426 kts 79°
2026-05-07 06:38 52.04967 1.83486 27203 ft 429 kts 79°
2026-05-07 06:38 52.05458 1.88286 27606 ft 432 kts 79°
2026-05-07 06:38 52.05948 1.93110 28030 ft 434 kts 79°
2026-05-07 06:39 52.06439 1.97963 28452 ft 437 kts 79°
2026-05-07 06:39 52.06934 2.02860 28714 ft 442 kts 79°
2026-05-07 06:39 52.07433 2.07811 29072 ft 445 kts 80°
2026-05-07 06:39 52.07929 2.12781 29502 ft 446 kts 79°
2026-05-07 06:40 52.08424 2.17761 29908 ft 447 kts 80°
2026-05-07 06:40 52.08921 2.22759 30259 ft 449 kts 80°
2026-05-07 06:40 52.09417 2.27783 30541 ft 451 kts 80°
2026-05-07 06:40 52.09912 2.32835 30821 ft 453 kts 80°
2026-05-07 06:41 52.10407 2.37895 31193 ft 453 kts 80°
2026-05-07 06:41 52.10899 2.42946 31627 ft 451 kts 80°
2026-05-07 06:41 52.11392 2.47976 32007 ft 451 kts 79°
2026-05-07 06:41 52.12111 2.52977 32109 ft 456 kts 73°
2026-05-07 06:42 52.13051 2.57920 32401 ft 457 kts 71°
2026-05-07 06:42 52.14034 2.62825 32876 ft 454 kts 71°
2026-05-07 06:42 52.15010 2.67693 33381 ft 451 kts 71°
2026-05-07 06:42 52.15966 2.72551 33758 ft 450 kts 72°
2026-05-07 06:43 52.16905 2.77415 34077 ft 451 kts 72°
2026-05-07 06:43 52.17831 2.82292 34345 ft 451 kts 72°
2026-05-07 06:43 52.18752 2.87186 34602 ft 452 kts 72°
2026-05-07 06:43 52.19669 2.92084 34828 ft 453 kts 72°
2026-05-07 06:44 52.20586 2.97000 35094 ft 453 kts 72°
2026-05-07 06:44 52.21508 3.01943 35171 ft 458 kts 72°
2026-05-07 06:44 52.22433 3.06917 35446 ft 458 kts 73°
2026-05-07 06:44 52.23354 3.11882 35713 ft 458 kts 73°
2026-05-07 06:45 52.24275 3.16859 35945 ft 458 kts 73°
2026-05-07 06:45 52.25193 3.21825 36266 ft 456 kts 73°
2026-05-07 06:45 52.26033 3.26807 36595 ft 455 kts 76°
2026-05-07 06:45 52.26697 3.31867 36775 ft 457 kts 78°
2026-05-07 06:46 52.27286 3.36979 36938 ft 459 kts 79°
2026-05-07 06:46 52.27846 3.42103 37064 ft 460 kts 79°
2026-05-07 06:46 52.28978 3.52411 37049 ft 461 kts 79°
2026-05-07 06:47 52.30133 3.62619 37064 ft 459 kts 79°
2026-05-07 06:47 52.31309 3.72864 37063 ft 458 kts 79°
2026-05-07 06:48 52.32480 3.83089 37067 ft 457 kts 79°
2026-05-07 06:48 52.33641 3.93310 37069 ft 457 kts 79°
2026-05-07 06:49 52.34791 4.03525 37063 ft 457 kts 79°
2026-05-07 06:49 52.35931 4.13749 37063 ft 457 kts 79°
2026-05-07 06:50 52.37063 4.23984 37064 ft 458 kts 80°
2026-05-07 06:50 52.38188 4.34240 37062 ft 458 kts 80°
2026-05-07 06:51 52.39307 4.44518 37057 ft 459 kts 80°
2026-05-07 06:51 52.40417 4.54814 37057 ft 460 kts 80°
2026-05-07 06:52 52.41521 4.65137 37057 ft 460 kts 80°
2026-05-07 06:52 52.42433 4.73727 37051 ft 461 kts 80°
2026-05-07 06:53 52.43522 4.84081 37057 ft 461 kts 80°
2026-05-07 06:53 52.44603 4.94444 37053 ft 461 kts 80°
2026-05-07 06:54 52.45676 5.04818 37048 ft 461 kts 80°
2026-05-07 06:54 52.46739 5.15186 37053 ft 461 kts 81°
2026-05-07 06:55 52.47791 5.25551 37050 ft 461 kts 81°
2026-05-07 06:55 52.48833 5.35911 37049 ft 460 kts 81°
2026-05-07 06:56 52.49843 5.46038 37049 ft 460 kts 81°
2026-05-07 06:56 52.50867 5.56401 37040 ft 460 kts 81°
2026-05-07 06:57 52.51882 5.66761 37056 ft 460 kts 81°
2026-05-07 06:57 52.52887 5.77130 37054 ft 460 kts 81°
2026-05-07 06:58 52.53884 5.87513 37050 ft 460 kts 81°
2026-05-07 06:58 52.54873 5.97905 37050 ft 461 kts 81°
2026-05-07 06:59 52.55853 6.08310 37041 ft 461 kts 81°
2026-05-07 06:59 52.56825 6.18722 37037 ft 461 kts 81°
2026-05-07 07:00 52.57787 6.29139 37033 ft 461 kts 82°
2026-05-07 07:00 52.58741 6.39567 37035 ft 461 kts 82°
2026-05-07 07:01 52.59679 6.49930 37034 ft 461 kts 82°
2026-05-07 07:01 52.60615 6.60370 37030 ft 461 kts 82°
2026-05-07 07:02 52.61541 6.70813 37029 ft 461 kts 82°
2026-05-07 07:02 52.62458 6.81257 37030 ft 461 kts 82°
2026-05-07 07:03 52.63367 6.91716 37030 ft 461 kts 82°
2026-05-07 07:03 52.64266 7.02171 37026 ft 461 kts 82°
2026-05-07 07:04 52.65154 7.12620 37023 ft 461 kts 82°
2026-05-07 07:04 52.66034 7.23077 37021 ft 461 kts 82°
2026-05-07 07:05 52.66904 7.33531 37021 ft 461 kts 82°
2026-05-07 07:05 52.67766 7.43996 37021 ft 461 kts 83°
2026-05-07 07:06 52.68617 7.54455 37024 ft 461 kts 83°
2026-05-07 07:06 52.69459 7.64924 37019 ft 461 kts 83°
2026-05-07 07:07 52.70293 7.75403 37022 ft 461 kts 83°
2026-05-07 07:07 52.71117 7.85878 37014 ft 461 kts 83°
2026-05-07 07:08 52.71932 7.96361 37011 ft 461 kts 83°
2026-05-07 07:08 52.72738 8.06852 36997 ft 461 kts 83°
2026-05-07 07:09 52.73535 8.17346 37008 ft 461 kts 83°
2026-05-07 07:09 52.74323 8.27853 37008 ft 462 kts 83°
2026-05-07 07:10 52.75103 8.38377 37009 ft 462 kts 83°
2026-05-07 07:10 52.75874 8.48905 37007 ft 462 kts 84°
2026-05-07 07:11 52.76636 8.59447 37001 ft 463 kts 84°
2026-05-07 07:11 52.77389 8.70002 37008 ft 463 kts 84°
2026-05-07 07:12 52.78134 8.80570 37010 ft 463 kts 84°
2026-05-07 07:12 52.78865 8.91078 37007 ft 464 kts 84°
2026-05-07 07:13 52.79592 9.01670 37005 ft 464 kts 84°
2026-05-07 07:13 52.80310 9.12271 36991 ft 464 kts 84°
2026-05-07 07:14 52.81023 9.22873 37001 ft 464 kts 84°
2026-05-07 07:14 52.81722 9.33490 37000 ft 465 kts 85°
2026-05-07 07:15 52.82409 9.44105 37004 ft 465 kts 85°
2026-05-07 07:15 52.83089 9.54740 37000 ft 465 kts 85°
2026-05-07 07:16 52.83761 9.65370 36997 ft 465 kts 85°
2026-05-07 07:16 52.84423 9.76012 36992 ft 465 kts 85°
2026-05-07 07:17 52.85075 9.86646 36996 ft 465 kts 85°
2026-05-07 07:17 52.85718 9.97287 36994 ft 465 kts 85°
2026-05-07 07:18 52.86352 10.07931 36994 ft 465 kts 85°
2026-05-07 07:18 52.86976 10.18574 36984 ft 465 kts 85°
2026-05-07 07:19 52.87590 10.29218 36996 ft 465 kts 86°
2026-05-07 07:19 52.88195 10.39871 36983 ft 465 kts 86°
2026-05-07 07:20 52.88790 10.50524 36994 ft 465 kts 86°
2026-05-07 07:20 52.89376 10.61186 36986 ft 465 kts 86°
2026-05-07 07:21 52.89953 10.71859 36978 ft 465 kts 86°
2026-05-07 07:21 52.90521 10.82541 36986 ft 465 kts 86°
2026-05-07 07:22 52.91075 10.93157 36991 ft 466 kts 86°
2026-05-07 07:22 52.91625 11.03869 36980 ft 467 kts 86°
2026-05-07 07:23 52.92165 11.14581 36983 ft 466 kts 86°
2026-05-07 07:23 52.92695 11.25293 36984 ft 466 kts 87°
2026-05-07 07:24 52.93216 11.36008 36982 ft 467 kts 87°
2026-05-07 07:24 52.93727 11.46742 36985 ft 467 kts 87°
2026-05-07 07:25 52.94477 11.62840 36981 ft 467 kts 87°
2026-05-07 07:25 52.94722 11.68210 36872 ft 469 kts 88°
2026-05-07 07:26 52.94965 11.73604 36580 ft 468 kts 88°
2026-05-07 07:26 52.95206 11.78973 36327 ft 466 kts 88°
2026-05-07 07:26 52.95443 11.84327 36076 ft 465 kts 88°
2026-05-07 07:26 52.95677 11.89669 35472 ft 465 kts 88°
2026-05-07 07:27 52.95909 11.95018 34903 ft 465 kts 88°
2026-05-07 07:27 52.96138 12.00364 34316 ft 465 kts 88°
2026-05-07 07:27 52.96365 12.05692 33851 ft 461 kts 89°
2026-05-07 07:27 52.96584 12.10915 33321 ft 458 kts 89°
2026-05-07 07:28 52.96803 12.16162 32855 ft 454 kts 89°
2026-05-07 07:28 52.97017 12.21350 32422 ft 449 kts 89°
2026-05-07 07:28 52.97227 12.26493 31962 ft 445 kts 89°
2026-05-07 07:28 52.97435 12.31645 31545 ft 440 kts 89°
2026-05-07 07:29 52.97532 12.36611 31151 ft 433 kts 95°
2026-05-07 07:29 52.97404 12.41551 30782 ft 426 kts 97°
2026-05-07 07:29 52.97211 12.46438 30365 ft 422 kts 97°
2026-05-07 07:29 52.97014 12.51279 29940 ft 419 kts 97°
2026-05-07 07:30 52.96833 12.56081 29468 ft 415 kts 96°
2026-05-07 07:30 52.96670 12.60829 29044 ft 410 kts 96°
2026-05-07 07:30 52.96516 12.65523 28613 ft 405 kts 96°
2026-05-07 07:30 52.96364 12.70168 28184 ft 401 kts 96°
2026-05-07 07:31 52.96209 12.74765 27766 ft 397 kts 96°
2026-05-07 07:31 52.96050 12.79322 27340 ft 394 kts 96°
2026-05-07 07:31 52.95891 12.83828 26931 ft 390 kts 96°
2026-05-07 07:31 52.95734 12.88309 26479 ft 388 kts 96°
2026-05-07 07:32 52.95578 12.92765 26052 ft 386 kts 96°
2026-05-07 07:32 52.95423 12.97195 25640 ft 383 kts 96°
2026-05-07 07:32 52.95268 13.01594 25231 ft 381 kts 96°
2026-05-07 07:32 52.95111 13.05972 24828 ft 379 kts 96°
2026-05-07 07:33 52.94953 13.10320 24428 ft 377 kts 95°
2026-05-07 07:33 52.94793 13.14655 24024 ft 376 kts 96°
2026-05-07 07:33 52.94631 13.18973 23621 ft 374 kts 96°
2026-05-07 07:33 52.94527 13.23278 23147 ft 375 kts 89°
2026-05-07 07:34 52.94879 13.27553 22705 ft 374 kts 78°
2026-05-07 07:34 52.95665 13.31586 22296 ft 373 kts 67°
2026-05-07 07:34 52.96779 13.35444 21926 ft 369 kts 64°
2026-05-07 07:34 52.97930 13.39246 21525 ft 368 kts 64°
2026-05-07 07:35 52.99074 13.43024 21135 ft 365 kts 64°
2026-05-07 07:35 53.00199 13.46792 20746 ft 363 kts 65°
2026-05-07 07:35 53.01309 13.50551 20367 ft 362 kts 65°
2026-05-07 07:35 53.02406 13.54295 19988 ft 360 kts 65°
2026-05-07 07:36 53.03494 13.58024 19613 ft 358 kts 65°
2026-05-07 07:36 53.04578 13.61742 19283 ft 355 kts 65°
2026-05-07 07:36 53.05653 13.65398 19018 ft 351 kts 65°
2026-05-07 07:36 53.06724 13.69033 18668 ft 349 kts 65°
2026-05-07 07:37 53.07792 13.72659 18316 ft 348 kts 65°
2026-05-07 07:37 53.08854 13.76272 17899 ft 347 kts 65°
2026-05-07 07:37 53.09913 13.79881 17499 ft 346 kts 65°
2026-05-07 07:37 53.10966 13.83478 17106 ft 345 kts 65°
2026-05-07 07:38 53.12014 13.87065 16703 ft 344 kts 64°
2026-05-07 07:38 53.13059 13.90644 16300 ft 343 kts 64°
2026-05-07 07:38 53.14100 13.94218 15874 ft 343 kts 64°
2026-05-07 07:38 53.15140 13.97793 15448 ft 343 kts 64°
2026-05-07 07:39 53.16179 14.01371 15038 ft 342 kts 64°
2026-05-07 07:39 53.17214 14.04942 14620 ft 342 kts 64°
2026-05-07 07:39 53.18248 14.08512 14215 ft 341 kts 64°
2026-05-07 07:39 53.19277 14.12068 13825 ft 340 kts 64°
2026-05-07 07:40 53.20302 14.15611 13410 ft 338 kts 64°
2026-05-07 07:40 53.21317 14.19134 13018 ft 336 kts 64°
2026-05-07 07:40 53.21983 14.21449 12791 ft 333 kts 64°
2026-05-07 07:40 53.22978 14.24913 12468 ft 329 kts 64°
2026-05-07 07:41 53.23960 14.28332 12132 ft 325 kts 64°
2026-05-07 07:41 53.24930 14.31714 11796 ft 321 kts 64°
2026-05-07 07:41 53.26198 14.36143 11340 ft 318 kts 64°
2026-05-07 07:41 53.27146 14.39461 10994 ft 315 kts 64°
2026-05-07 07:42 53.27759 14.41713 10762 ft 314 kts 68°
2026-05-07 07:42 53.28420 14.45177 10415 ft 312 kts 75°
2026-05-07 07:42 53.28950 14.48664 10211 ft 305 kts 76°
2026-05-07 07:42 53.29447 14.52061 10073 ft 297 kts 76°
2026-05-07 07:43 53.29937 14.55367 9861 ft 291 kts 76°
2026-05-07 07:43 53.30434 14.58645 9525 ft 290 kts 75°
2026-05-07 07:43 53.30936 14.61900 9231 ft 288 kts 75°
2026-05-07 07:43 53.31438 14.65125 8930 ft 286 kts 75°
2026-05-07 07:44 53.31939 14.68328 8628 ft 284 kts 75°
2026-05-07 07:44 53.32438 14.71508 8328 ft 282 kts 75°
2026-05-07 07:44 53.32933 14.74662 8035 ft 280 kts 75°
2026-05-07 07:44 53.33419 14.77759 7745 ft 278 kts 74°
2026-05-07 07:45 53.33915 14.80919 7452 ft 276 kts 74°
2026-05-07 07:45 53.34402 14.84023 7164 ft 275 kts 74°
2026-05-07 07:45 53.34884 14.87110 6875 ft 274 kts 74°
2026-05-07 07:45 53.35363 14.90183 6587 ft 272 kts 74°
2026-05-07 07:46 53.35832 14.93198 6303 ft 271 kts 73°
2026-05-07 07:46 53.36306 14.96238 6004 ft 269 kts 74°
2026-05-07 07:46 53.36775 14.99257 5715 ft 267 kts 73°
2026-05-07 07:46 53.37238 15.02253 5429 ft 265 kts 73°
2026-05-07 07:47 53.37697 15.05219 5135 ft 262 kts 73°
2026-05-07 07:47 53.38306 15.08033 4919 ft 251 kts 56°
2026-05-07 07:47 53.39444 15.10165 4666 ft 240 kts 42°
2026-05-07 07:47 53.40682 15.11979 4366 ft 233 kts 41°
2026-05-07 07:48 53.41894 15.13714 4105 ft 224 kts 41°
2026-05-07 07:48 53.43157 15.15081 3838 ft 214 kts 17°
2026-05-07 07:48 53.44599 15.14839 3612 ft 214 kts 337°
2026-05-07 07:48 53.45823 15.13473 3398 ft 208 kts 331°
2026-05-07 07:49 53.46966 15.11994 3117 ft 206 kts 325°
2026-05-07 07:49 53.48000 15.10413 3003 ft 195 kts 323°
2026-05-07 07:49 53.48919 15.08811 2886 ft 187 kts 319°
2026-05-07 07:49 53.49773 15.07179 2635 ft 185 kts 318°
2026-05-07 07:50 53.50610 15.05548 2394 ft 183 kts 316°
2026-05-07 07:50 53.51433 15.03937 2149 ft 181 kts 316°
2026-05-07 07:50 53.52246 15.02349 1901 ft 178 kts 316°
2026-05-07 07:50 53.53047 15.00786 1649 ft 174 kts 316°
2026-05-07 07:51 53.53808 14.99302 1438 ft 160 kts 316°
2026-05-07 07:51 53.54502 14.97947 1196 ft 147 kts 317°
2026-05-07 07:51 53.55156 14.96674 990 ft 143 kts 317°
2026-05-07 07:51 53.55804 14.95405 783 ft 145 kts 315°
2026-05-07 07:52 53.56465 14.94113 605 ft 146 kts 317°
2026-05-07 07:52 53.57134 14.92829 390 ft 145 kts 315°
2026-05-07 07:52 53.57788 14.91548 200 ft 143 kts 315°
2026-05-07 07:52 53.58386 14.90393 150 ft 106 kts 311°
2026-05-07 07:53 53.58733 14.89717 139 ft 55 kts 311°
2026-05-07 07:53 53.58923 14.89350 136 ft 31 kts 310°
2026-05-07 07:53 53.59037 14.89129 134 ft 11 kts 316°
2026-05-07 07:53 53.59102 14.89165 127 ft 11 kts 29°
2026-05-07 07:54 53.59131 14.89200 128 ft 1 kts 39°
2026-05-07 07:54 53.59164 14.89251 129 ft 11 kts 43°
2026-05-07 07:54 53.59214 14.89339 131 ft 9 kts 48°
2026-05-07 07:54 53.59239 14.89385 130 ft 3 kts 49°
2026-05-07 07:55 53.59245 14.89397 131 ft 0 kts 49°